sat.trackr.live / text

‹ back to catalog

KUIPER-00416

NORAD 68931 · 2026-098N

PAYLOAD ACTIVE UNKNOWN

§ Identity

Operator
Country
US
Launch date
2026-04-30
Launch site
FRGUI
Launch vehicle
Mass (kg)
RCS (m²)

External: N2YO · Heavens-Above · Gunter

§ Orbital elements

Epoch: 2026-09-19T13:36:01.161504Z

Period
97.30 min
Inclination
51.9032°
Eccentricity
0.0000498
Mean motion
14.79929239 rev/d
Perigee alt
629.2 km
Apogee alt
629.9 km
Semi-major
7,007.7 km
B*
1.6801e-4
RAAN
347.1757°
Arg perigee
113.3245°
Mean anomaly
246.7770°
Rev number
2,164

§ Raw data

KUIPER-004161 68931U 26098N   26262.56668011  .00001060  00000+0  16801-3 0  99982 68931  51.9032 347.1757 0000498 113.3245 246.7770 14.79929239 21644

JSON: /api/v1/satellites/68931 · /tle

For live sub-satellite position, see the globe view (requires WebGL).

§ Visibility from observer

Set your observer location to see the next 7 days of passes ≥ 10°. The values pass through the URL so the page stays shareable.

No JS? Fill the form by hand. The geolocation button needs JavaScript.